• In Schweiz
  • Länderverzeichnis
  • Für 7 Tage
  • Wassertemperatur
  • Satellitenkarten
  • Wetterkarte
  • Widgets
  • user-avatar
    Anmelden

    Stündliche Wetter Saltykovo

    Heute, 24 September, Montag

    Zeit Temperatur Niederschläge Wind Luftdruck Luftfeuchtigkeit
    00:00 +8°C° 2.8 mm 4 m/S 744 mmHg 91%
    01:00 +9°C° 0.5 mm 3 m/S 744 mmHg 91%
    02:00 +9°C° 0.5 mm 3 m/S 744 mmHg 92%
    03:00 +9°C° 0.5 mm 3 m/S 744 mmHg 92%
    04:00 +9°C° 0 mm 2 m/S 744 mmHg 93%
    05:00 +8°C° 0 mm 2 m/S 745 mmHg 94%
    06:00 +7°C° 0 mm 2 m/S 745 mmHg 96%
    07:00 +8°C° 0 mm 2 m/S 745 mmHg 91%
    08:00 +10°C° 0 mm 2 m/S 745 mmHg 86%
    09:00 +12°C° 0 mm 2 m/S 746 mmHg 82%
    10:00 +12°C° 0 mm 3 m/S 746 mmHg 74%
    11:00 +14°C° 0 mm 3 m/S 746 mmHg 66%
    12:00 +16°C° 0 mm 3 m/S 746 mmHg 57%
    13:00 +16°C° 0 mm 3 m/S 746 mmHg 56%
    14:00 +15°C° 0 mm 4 m/S 745 mmHg 54%
    15:00 +17°C° 0 mm 4 m/S 745 mmHg 53%
    16:00 +16°C° 0 mm 3 m/S 745 mmHg 57%
    17:00 +14°C° 0 mm 3 m/S 744 mmHg 61%
    18:00 +13°C° 0 mm 3 m/S 744 mmHg 65%
    19:00 +13°C° 0.3 mm 3 m/S 744 mmHg 68%
    20:00 +12°C° 0.3 mm 4 m/S 743 mmHg 71%
    21:00 +12°C° 0.3 mm 5 m/S 743 mmHg 73%
    22:00 +12°C° 1.1 mm 5 m/S 742 mmHg 76%
    23:00 +10°C° 1.1 mm 6 m/S 741 mmHg 79%

    Morgen, 25 September, Dienstag

    Zeit Temperatur Niederschläge Wind Luftdruck Luftfeuchtigkeit
    00:00 +10°C° 1.1 mm 7 m/S 741 mmHg 82%
    01:00 +10°C° 0.4 mm 7 m/S 740 mmHg 82%
    02:00 +10°C° 0.4 mm 7 m/S 739 mmHg 81%
    03:00 +10°C° 0.4 mm 7 m/S 739 mmHg 80%
    04:00 +10°C° 0.3 mm 6 m/S 738 mmHg 81%
    05:00 +10°C° 0.3 mm 6 m/S 738 mmHg 82%
    06:00 +10°C° 0.3 mm 6 m/S 738 mmHg 83%
    07:00 +9°C° 0.4 mm 5 m/S 738 mmHg 83%
    08:00 +9°C° 0.4 mm 5 m/S 738 mmHg 84%
    09:00 +9°C° 0.4 mm 5 m/S 738 mmHg 85%
    10:00 +9°C° 0.1 mm 5 m/S 738 mmHg 82%
    11:00 +9°C° 0.1 mm 5 m/S 738 mmHg 79%
    12:00 +9°C° 0.1 mm 6 m/S 739 mmHg 76%
    13:00 +10°C° 0 mm 5 m/S 739 mmHg 74%
    14:00 +10°C° 0 mm 5 m/S 739 mmHg 72%
    15:00 +10°C° 0 mm 5 m/S 739 mmHg 71%
    16:00 +9°C° 0.1 mm 5 m/S 740 mmHg 72%
    17:00 +9°C° 0.1 mm 5 m/S 740 mmHg 74%
    18:00 +9°C° 0.1 mm 5 m/S 740 mmHg 76%
    19:00 +8°C° 0 mm 5 m/S 741 mmHg 78%
    20:00 +7°C° 0 mm 5 m/S 741 mmHg 80%
    21:00 +6°C° 0 mm 5 m/S 742 mmHg 82%
    22:00 +6°C° 0 mm 5 m/S 742 mmHg 81%
    23:00 +6°C° 0 mm 5 m/S 743 mmHg 81%

    übermorgen, 26 September, Mittwoch

    Zeit Temperatur Niederschläge Wind Luftdruck Luftfeuchtigkeit
    00:00 +7°C° 0 mm 6 m/S 743 mmHg 80%
    01:00 +5°C° 0.1 mm 6 m/S 744 mmHg 80%
    02:00 +5°C° 0.1 mm 6 m/S 744 mmHg 81%
    03:00 +5°C° 0.1 mm 6 m/S 745 mmHg 82%
    04:00 +5°C° 0.2 mm 6 m/S 746 mmHg 83%
    05:00 +5°C° 0.2 mm 6 m/S 746 mmHg 84%
    06:00 +4°C° 0.2 mm 6 m/S 747 mmHg 85%
    07:00 +6°C° 0.1 mm 5 m/S 748 mmHg 83%
    08:00 +6°C° 0.1 mm 5 m/S 749 mmHg 81%
    09:00 +6°C° 0.1 mm 5 m/S 750 mmHg 79%
    10:00 +6°C° 0 mm 5 m/S 750 mmHg 77%
    11:00 +6°C° 0 mm 5 m/S 751 mmHg 74%
    12:00 +6°C° 0 mm 4 m/S 752 mmHg 71%
    13:00 +7°C° 0 mm 4 m/S 752 mmHg 68%
    14:00 +7°C° 0 mm 4 m/S 752 mmHg 64%
    15:00 +7°C° 0 mm 4 m/S 753 mmHg 61%
    16:00 +8°C° 0 mm 3 m/S 753 mmHg 62%
    17:00 +7°C° 0 mm 3 m/S 753 mmHg 64%
    18:00 +6°C° 0 mm 2 m/S 753 mmHg 65%
    19:00 +6°C° 0 mm 2 m/S 753 mmHg 67%
    20:00 +5°C° 0 mm 2 m/S 753 mmHg 68%
    21:00 +4°C° 0 mm 2 m/S 753 mmHg 70%
    22:00 +3°C° 0 mm 3 m/S 753 mmHg 70%
    23:00 +2°C° 0 mm 3 m/S 753 mmHg 70%

    27 September, Donnerstag

    Zeit Temperatur Niederschläge Wind Luftdruck Luftfeuchtigkeit
    00:00 +2°C° 0 mm 3 m/S 752 mmHg 70%
    01:00 +2°C° 0 mm 3 m/S 752 mmHg 70%
    02:00 +1°C° 0 mm 4 m/S 751 mmHg 69%
    03:00 +1°C° 0 mm 4 m/S 751 mmHg 69%
    04:00 +2°C° 0 mm 5 m/S 750 mmHg 68%
    05:00 +2°C° 0 mm 5 m/S 750 mmHg 66%
    06:00 +3°C° 0 mm 6 m/S 749 mmHg 65%
    07:00 +3°C° 0.2 mm 6 m/S 748 mmHg 66%
    08:00 +4°C° 0.2 mm 7 m/S 748 mmHg 67%
    09:00 +4°C° 0.2 mm 8 m/S 747 mmHg 68%
    10:00 +4°C° 0.8 mm 8 m/S 746 mmHg 72%
    11:00 +4°C° 0.8 mm 8 m/S 746 mmHg 76%
    12:00 +4°C° 0.8 mm 8 m/S 745 mmHg 80%
    13:00 +4°C° 0.6 mm 8 m/S 745 mmHg 81%
    14:00 +4°C° 0.6 mm 8 m/S 745 mmHg 83%
    15:00 +4°C° 0.6 mm 7 m/S 744 mmHg 85%
    16:00 +5°C° 0.1 mm 6 m/S 744 mmHg 86%
    17:00 +5°C° 0.1 mm 6 m/S 744 mmHg 87%
    18:00 +6°C° 0.1 mm 5 m/S 745 mmHg 87%
    19:00 +6°C° 0 mm 5 m/S 745 mmHg 89%
    20:00 +6°C° 0 mm 5 m/S 745 mmHg 90%
    21:00 +6°C° 0 mm 5 m/S 745 mmHg 92%
    22:00 +5°C° 0 mm 5 m/S 745 mmHg 93%
    23:00 +5°C° 0 mm 4 m/S 745 mmHg 94%

    28 September, Freitag

    Zeit Temperatur Niederschläge Wind Luftdruck Luftfeuchtigkeit
    00:00 +5°C° 0 mm 4 m/S 745 mmHg 95%
    01:00 +5°C° 0 mm 4 m/S 745 mmHg 94%
    02:00 +6°C° 0 mm 4 m/S 745 mmHg 93%
    03:00 +6°C° 0 mm 4 m/S 745 mmHg 92%
    04:00 +7°C° 0 mm 4 m/S 744 mmHg 92%
    05:00 +7°C° 0 mm 4 m/S 743 mmHg 93%
    06:00 +7°C° 0 mm 5 m/S 743 mmHg 93%
    07:00 +8°C° 0.4 mm 6 m/S 742 mmHg 91%
    08:00 +9°C° 0.4 mm 7 m/S 741 mmHg 90%
    09:00 +10°C° 0.4 mm 7 m/S 741 mmHg 89%
    10:00 +10°C° 0.2 mm 8 m/S 740 mmHg 87%
    11:00 +11°C° 0.2 mm 8 m/S 740 mmHg 85%
    12:00 +11°C° 0.2 mm 8 m/S 740 mmHg 84%
    13:00 +11°C° 0.2 mm 9 m/S 739 mmHg 84%
    14:00 +12°C° 0.2 mm 9 m/S 739 mmHg 84%
    15:00 +12°C° 0.2 mm 9 m/S 739 mmHg 83%
    16:00 +11°C° 0.4 mm 8 m/S 740 mmHg 82%
    17:00 +11°C° 0.4 mm 7 m/S 741 mmHg 81%
    18:00 +10°C° 0.4 mm 6 m/S 741 mmHg 80%
    19:00 +9°C° 0 mm 5 m/S 743 mmHg 83%
    20:00 +7°C° 0 mm 4 m/S 744 mmHg 85%
    21:00 +5°C° 0 mm 3 m/S 745 mmHg 87%
    22:00 +5°C° 0 mm 3 m/S 745 mmHg 88%
    23:00 +5°C° 0 mm 3 m/S 746 mmHg 89%

    29 September, Samstag

    Zeit Temperatur Niederschläge Wind Luftdruck Luftfeuchtigkeit
    00:00 +5°C° 0 mm 3 m/S 746 mmHg 90%
    01:00 +4°C° 0 mm 3 m/S 747 mmHg 91%
    02:00 +4°C° 0 mm 3 m/S 747 mmHg 92%
    03:00 +5°C° 0 mm 2 m/S 748 mmHg 93%
    04:00 +5°C° 0 mm 2 m/S 748 mmHg 94%
    05:00 +4°C° 0 mm 2 m/S 749 mmHg 94%
    06:00 +4°C° 0 mm 2 m/S 749 mmHg 95%
    07:00 +5°C° 0 mm 2 m/S 750 mmHg 90%
    08:00 +6°C° 0 mm 2 m/S 750 mmHg 85%
    09:00 +8°C° 0 mm 2 m/S 751 mmHg 81%
    10:00 +9°C° 0 mm 2 m/S 751 mmHg 74%
    11:00 +10°C° 0 mm 3 m/S 751 mmHg 66%
    12:00 +11°C° 0 mm 3 m/S 751 mmHg 59%
    13:00 +11°C° 0 mm 3 m/S 751 mmHg 57%
    14:00 +11°C° 0 mm 3 m/S 751 mmHg 54%
    15:00 +12°C° 0 mm 2 m/S 751 mmHg 51%
    16:00 +10°C° 0 mm 2 m/S 751 mmHg 56%
    17:00 +9°C° 0 mm 2 m/S 752 mmHg 60%
    18:00 +8°C° 0 mm 1 m/S 752 mmHg 64%
    19:00 +8°C° 0 mm 1 m/S 752 mmHg 64%
    20:00 +8°C° 0 mm 1 m/S 753 mmHg 64%
    21:00 +7°C° 0 mm 2 m/S 753 mmHg 65%
    22:00 +6°C° 0 mm 2 m/S 754 mmHg 66%
    23:00 +6°C° 0 mm 2 m/S 754 mmHg 68%
    Mehr zeigen

    3.3.7123123